Estación Meteorológica Peña el Pijo (Robertgarden) [ 09/28/20 20:52:01 CEST ]

Fecha Hora Presion(HPa) Temp (°C) Humedad % Rocio (°C) Viento ( m/s) Direccion Lluvia 1Hora(mm) Lluvia 24H(mm) LLuvia Total(mm)
2020-Mar-01 01:09:21 1005.500 - - - - N     39.88
2020-Mar-01 02:10:19 1005.400 - - - - N     39.88
2020-Mar-01 03:09:39 1005.000 - - - - N     39.88
2020-Mar-01 04:09:40 1004.900 - - - - N     39.88
2020-Mar-01 05:09:21 1004.900 - - - - N     39.88
2020-Mar-01 06:09:29 1004.100 - - - - N     39.88
2020-Mar-01 07:09:10 1004.300 - - - - N     39.88
2020-Mar-01 08:09:52 1004.800 - - - - N     39.88
2020-Mar-01 09:09:04 1005.300 - - - - N     39.88
2020-Mar-01 10:09:09 1005.600 - - - - N     39.88
2020-Mar-01 11:09:27 1006.400 - - - - N     39.88
2020-Mar-01 12:09:11 1006.800 - - - - N     39.88
2020-Mar-01 13:08:56 1006.700 - - - - N     39.88
2020-Mar-01 14:09:38 1006.700 - - - - N     39.88
2020-Mar-01 15:09:09 1004.900 - - - - N     39.88
2020-Mar-01 16:09:06 1005.300 - - - - N     39.88
2020-Mar-01 17:08:59 1005.300 - - - - N     39.88
2020-Mar-01 18:09:14 1005.000 - - - - N     39.88
2020-Mar-01 19:09:42 1005.500 - - - - N     39.88
2020-Mar-01 20:09:23 1005.200 - - - - N     39.88
2020-Mar-01 21:09:19 1004.400 - - - - N     39.88
2020-Mar-01 22:09:07 1004.200 - - - - N     39.88
2020-Mar-01 23:09:17 1003.600 - - - - N     39.88

Temperatura Máxima:    Temperatura Mínima:
Presión Máxima:1006.800 Hpa    Presión Mínima:1003.600 Hpa


Volver